#timestamp,LO_Frequency,Hit,StdDev 
1622883615.9,286047000.5,N
1622883635.7,286046999.8,N
1622883655.6,286047000.0,N
1622883675.4,286047001.0,N
1622883695.2,286047000.1,N
1622883715.1,286047000.4,N
1622883716.0,286047000.4,N
1622883735.8,286047000.2,N
1622883755.6,286047002.2,N
1622883775.5,286046999.9,N
1622883795.3,286047001.0,N
1622883815.2,286047000.0,N
1622883835.9,286046998.6,N
1622883855.7,286047000.8,N
1622883875.6,286046998.1,N
1622883895.4,286046998.1,N
1622883915.2,286046998.4,N
1622883935.1,286047001.2,N
1622883936.0,286047001.2,N
1622883955.8,286047000.6,N
1622883975.7,286047001.2,N
1622883995.5,286047000.3,N
1622884015.3,286047000.3,N
1622884035.2,286047000.0,N
1622884055.0,286047000.9,N
1622884055.9,286047000.9,N
1622884075.7,286047000.4,N
1622884095.6,286047000.5,N
1622884115.4,286047001.2,N
1622884135.3,286046998.5,N
1622884155.1,286047000.4,N
1622884156.0,286047000.4,N
1622884175.8,286047000.7,N
1622884195.7,286046999.4,N
1622884215.5,286046999.1,N
1622884235.3,286046998.9,N
1622884255.2,286046996.7,Y
1622884275.0,286046997.4,P
1622884275.9,286046997.4,N
1622884295.8,286046997.8,N
1622884315.6,286046999.0,N
1622884335.4,286046998.6,N
1622884355.3,286046999.3,N
1622884375.1,286046998.4,N
1622884395.9,286046999.4,N
1622884415.7,286046999.2,N
1622884435.5,286046997.7,N
1622884455.4,286046998.9,N
1622884475.2,286046998.9,N
1622884495.0,286046999.5,N
1622884495.9,286046999.5,N
1622884515.8,286046998.8,N
1622884535.6,286046998.8,N
1622884555.5,286046998.8,N
1622884575.3,286046998.9,N
1622884595.1,286046998.9,N
1622884615.9,286046996.5,Y
1622884635.7,286047001.2,P
1622884655.6,286047000.4,N
1622884675.4,286047002.8,N
1622884695.2,286047000.4,N
1622884715.1,286047002.7,N
1622884716.0,286047002.7,N
1622884735.8,286047002.7,N
1622884755.7,286047002.7,N
1622884775.5,286046999.9,N
1622884795.3,286047000.5,N
1622884815.2,286046999.9,N
1622884835.9,286047000.3,N
1622884855.7,286047000.8,N
1622884875.6,286047000.7,N
1622884895.4,286046998.9,N
1622884915.3,286046998.3,N
1622884935.1,286046998.2,N
1622884936.0,286046998.2,N
1622884955.8,286047000.8,N
1622884975.7,286047000.5,N
1622884995.5,286047001.2,N
1622885015.3,286046999.0,N
1622885035.2,286046998.8,N
1622885055.0,286046998.8,N
1622885055.9,286046998.8,N
1622885075.8,286047000.7,N
1622885095.6,286047000.5,N
1622885115.4,286047001.1,N
1622885135.3,286047001.1,N
1622885155.1,286046996.9,N
1622885175.8,286046997.6,N
1622885195.7,286046997.8,N
1622885215.5,286046997.5,N
1622885235.4,286046997.1,N
1622885255.2,286046997.7,N
1622885275.0,286046995.4,N
1622885275.9,286046995.4,N
1622885295.8,286046997.7,N
1622885315.6,286046997.0,N
1622885335.5,286046997.2,N
1622885355.3,286046997.2,N
1622885375.1,286046995.0,N
1622885395.9,286046995.5,N
1622885415.7,286046996.0,N
1622885435.6,286046995.7,N
1622885455.4,286046996.3,N
1622885475.2,286046996.4,N
1622885495.1,286046993.5,Y
1622885496.0,286046993.5,P
1622885515.8,286046997.8,N
1622885535.7,286046997.7,N
1622885555.5,286046997.5,N
1622885575.3,286046996.6,N
1622885595.2,286046996.8,N
1622885615.0,286046997.2,N
1622885615.9,286046997.2,N
1622885635.8,286046999.1,N
1622885655.6,286046999.2,N
1622885675.4,286046999.5,N
1622885695.3,286046999.3,N
1622885715.1,286046999.6,N
1622885735.8,286046999.4,N
1622885755.7,286046996.5,N
1622885775.5,286046997.6,N
1622885795.4,286046995.6,N
1622885815.2,286046995.2,Y
1622885835.0,286046996.6,P
1622885835.9,286046996.6,P
1622885855.8,286046996.9,P
1622885875.6,286046997.6,Y
1622885895.4,286047001.0,P
1622885915.3,286047001.2,N
1622885935.1,286046998.1,N
1622885955.9,286046998.6,N
1622885975.7,286047001.2,N
1622885995.5,286046998.8,N
1622886015.4,286047000.9,N
1622886035.2,286046998.8,N
1622886055.0,286047000.5,N
1622886055.9,286047000.5,N
1622886075.8,286047001.0,N
1622886095.6,286047001.0,N
1622886115.5,286046998.5,N
1622886135.3,286046998.2,N
1622886155.1,286046998.5,N
1622886175.9,286046996.9,N
1622886195.7,286046997.1,N
1622886215.5,286046997.5,N
1622886235.4,286046999.6,N
1622886255.2,286046999.4,N
1622886275.1,286046996.6,N
1622886276.0,286046996.6,N
1622886295.8,286046999.5,N
1622886315.6,286046997.0,N
1622886335.5,286046999.2,N
1622886355.3,286046996.7,N
1622886375.1,286046999.5,N
1622886395.9,286046997.3,N
1622886415.7,286046996.6,N
1622886435.6,286046996.5,N
1622886455.4,286046997.5,N
1622886475.2,286046995.3,Y
1622886495.1,286046997.0,P
1622886496.0,286046997.0,P
1622886515.8,286046997.0,P
1622886535.7,286046996.5,Y
1622886555.5,286046999.0,P
1622886575.3,286046999.1,N
1622886595.2,286046999.3,N
1622886615.0,286046998.5,N
1622886615.9,286046998.5,N
1622886635.7,286047001.1,N
1622886655.6,286047000.9,N
1622886675.4,286046999.3,N
1622886695.3,286046999.5,N
1622886715.1,286046996.6,Y
1622886735.8,286046999.3,P
1622886755.7,286046999.1,P
1622886775.5,286046998.9,P
1622886795.4,286046999.4,Y
1622886815.2,286046999.0,P
1622886835.0,286046998.7,P
1622886835.9,286046998.7,P
1622886855.8,286046998.1,Y
1622886875.6,286047000.9,P
1622886895.5,286046999.8,N
1622886915.3,286047011.9,P
1622886935.1,286047002.6,N
1622886955.9,286047002.1,N
1622886975.7,286046999.7,N
1622886995.5,286047001.6,N
1622887015.4,286047001.5,N
1622887035.2,286047002.2,N
1622887055.1,286047004.2,N
1622887056.0,286047004.2,N
1622887075.8,286047003.9,N
1622887095.6,286047003.9,N
1622887115.5,286047001.6,N
1622887135.3,286047001.4,N
1622887155.1,286047001.6,N
1622887175.9,286047001.9,N
1622887195.7,286047003.7,N
